Location: Harwich
(41.7160°N, 69.9939°W)
Time: 05:59:09
(UTC+02:00)

O/OREOS (USA 219) - Visible Passes

Search period start: 19 September 2024 00:00
Search period end: 29 September 2024 00:00
Orbit: 591 x 614 km, 72.0° (Epoch: 18 September)

Date Brightness Start Highest point End Pass type
(mag) Time Alt. Az. Time Alt. Az. Time Alt. Az.
19 Sep ? 11:53:31 10° SSE 11:56:59 23° ESE 12:00:27 10° NE visible
22 Sep ? 10:53:18 10° SE 10:55:20 13° E 10:57:22 10° ENE visible
23 Sep ? 11:03:49 10° SSE 11:07:20 23° ESE 11:10:51 10° NE visible
24 Sep ? 11:15:14 10° S 11:19:24 42° ESE 11:23:35 10° NE visible
25 Sep ? 11:27:08 10° SSW 11:31:33 80° ESE 11:35:58 10° NNE visible
26 Sep ? 10:03:24 10° SE 10:05:33 13° E 10:07:43 10° ENE visible
26 Sep ? 11:39:27 10° SW 11:43:47 56° WNW 11:48:09 10° NNE visible
27 Sep ? 10:14:25 12° SSE 10:17:31 24° ESE 10:21:05 10° NE visible
27 Sep ? 11:52:08 10° SW 11:56:06 32° WNW 12:00:04 10° N visible
28 Sep ? 10:27:32 26° SSE 10:29:33 44° ESE 10:33:45 10° NE visible
28 Sep ? 12:05:19 10° WSW 12:08:30 19° NW 12:11:42 10° N visible
